Volver al catálogo

TZINGHUA 1

ActivoCienciaSSO
NORAD 26385·PAYLOAD·🇨🇳 China

Lanzado Jun 28, 2000 desde Plesetsk Cosmodrome

Loading…

Próximos Pases (próximas 24 horas)

TLE

ActualizadoSource: Space-Track

Época: Sep 14, 2026, 21:05 UTC

1 26385U 00033B   26257.87877343  .00000425  00000-0  81559-4 0  9992
2 26385  97.8922 228.0945 0014583 170.2931 189.8560 14.68346159400049

Sigue TZINGHUA 1 en tiempo real con AllMySat

Download on the App Store